Muscle Shoals, AL

5:22 AM CDT on October 17, 2017 (GMT -0500)
Northwest Alabama Regional

Weather History for KMSL - March, 2012

Change the Weather History Date:

Friday, March 9, 2012

  Actual Average Record
Temperature  
Mean Temperature 52 °F 51 °F  
Max Temperature 61 °F 62 °F 82 °F (1974)
Min Temperature 42 °F 41 °F 14 °F (1920)
Degree Days  
Heating Degree Days 13 14  
Month to date heating degree days 93 135  
Since 1 July heating degree days 2179 2670  
Cooling Degree Days 0 0  
Month to date cooling degree days 2 0  
Year to date cooling degree days 12 1  
Growing Degree Days 2 (Base 50)    
Moisture  
Dew Point 31 °F    
Average Humidity 58    
Maximum Humidity 86    
Minimum Humidity 29    
Precipitation  
Precipitation 0.17 in 0.14 in 3.36 in (1992)
Month to date precipitation 1.54 1.39  
Year to date precipitation 11.20 10.66  
Snow  
Snow 0.00 in - - ()
Month to date snowfall 0.0  
Since 1 July snowfall 0.1  
Snow Depth 0.00 in    
Sea Level Pressure  
Sea Level Pressure 30.38 in    
Wind  
Wind Speed 8 mph (NE)    
Max Wind Speed 17 mph    
Max Gust Speed 25 mph    
Visibility 10 miles    
Events Rain    
T = Trace of Precipitation, MM = Missing Value Source: NWS Daily Summary

Daily Weather History Graph

Daily Weather History Graph

Search for Another Location

Airport or City:

Trip Planner

Search our weather history database for the weather conditions in past years. The results will help you decide how hot, cold, wet, or windy it might be!

Date:

Astronomy

Mar. 09, 2012 Rise Set
Actual Time 6:08 AM CST 5:53 PM CST
Civil Twilight 5:43 AM CST 6:18 PM CST
Nautical Twilight 5:14 AM CST 6:48 PM CST
Astronomical Twilight 4:44 AM CST 7:17 PM CST
Moon 7:45 PM CST (3/9) 6:32 AM CST (3/9)
Length of Visible Light 12h 35m
Length of Day
11h 45m
Full, 97% of the Moon is Illuminated
Mar 9
Full
Mar 14
Last Quarter
Mar 22
New
Mar 30
First Quarter
Apr 6
Full

Hourly Weather History & Observations

Time (CST) Temp. Windchill Dew Point Humidity Pressure Visibility Wind Dir Wind Speed Gust Speed Precip Events Conditions
12:29 AM 44.6 °F 40.2 °F 41.0 °F 87% 30.30 in 10.0 mi NNE 8.1 mph 16.1 mph 0.11 in Rain Rain
12:53 AM 44.1 °F 40.1 °F 39.0 °F 82% 30.29 in 10.0 mi ENE 6.9 mph - 0.17 in Rain Rain
1:27 AM 42.8 °F 38.6 °F 37.4 °F 81% 30.28 in 10.0 mi East 6.9 mph - 0.02 in Rain Light Rain
1:53 AM 44.1 °F 42.5 °F 37.9 °F 79% 30.27 in 10.0 mi ENE 3.5 mph - 0.03 in Rain Light Rain
2:53 AM 44.1 °F 39.5 °F 37.9 °F 79% 30.29 in 10.0 mi North 8.1 mph - 0.00 in   Overcast
3:53 AM 44.1 °F 39.0 °F 37.0 °F 76% 30.31 in 10.0 mi NNE 9.2 mph 18.4 mph N/A   Overcast
4:53 AM 43.0 °F 36.0 °F 35.1 °F 74% 30.35 in 10.0 mi North 13.8 mph 21.9 mph N/A   Clear
5:53 AM 42.1 °F 35.7 °F 34.0 °F 73% 30.39 in 10.0 mi NNE 11.5 mph 20.7 mph N/A   Clear
6:53 AM 42.1 °F 36.1 °F 33.1 °F 70% 30.41 in 10.0 mi NE 10.4 mph 16.1 mph N/A   Clear
7:53 AM 43.0 °F 37.2 °F 30.9 °F 62% 30.44 in 10.0 mi NNE 10.4 mph 18.4 mph N/A   Clear
8:53 AM 45.0 °F 39.3 °F 28.9 °F 53% 30.44 in 10.0 mi ENE 11.5 mph 18.4 mph N/A   Clear
9:53 AM 48.2 °F - 26.6 °F 43% 30.46 in 10.0 mi NE 6.9 mph - N/A   Clear
10:53 AM 51.1 °F - 26.1 °F 38% 30.45 in 10.0 mi NE 11.5 mph 24.2 mph N/A   Clear
11:53 AM 54.0 °F - 28.0 °F 37% 30.43 in 10.0 mi ENE 13.8 mph 25.3 mph N/A   Clear
12:53 PM 57.0 °F - 30.9 °F 37% 30.41 in 10.0 mi NE 12.7 mph 18.4 mph N/A   Clear
1:53 PM 59.0 °F - 30.0 °F 33% 30.39 in 10.0 mi NNE 6.9 mph 18.4 mph N/A   Clear
2:53 PM 60.1 °F - 28.9 °F 31% 30.38 in 10.0 mi NNE 13.8 mph 18.4 mph N/A   Clear
3:53 PM 61.0 °F - 28.0 °F 29% 30.39 in 10.0 mi NNE 9.2 mph - N/A   Clear
4:53 PM 60.1 °F - 28.9 °F 31% 30.38 in 10.0 mi NNE 6.9 mph - N/A   Clear
5:53 PM 55.9 °F - 30.0 °F 37% 30.38 in 10.0 mi NNE 3.5 mph - N/A   Clear
6:53 PM 54.0 °F - 28.9 °F 38% 30.40 in 10.0 mi NNE 4.6 mph - N/A   Clear
7:53 PM 51.1 °F - 28.9 °F 43% 30.41 in 10.0 mi NNE 5.8 mph - N/A   Clear
8:53 PM 51.1 °F - 28.0 °F 41% 30.42 in 10.0 mi NNE 5.8 mph - N/A   Clear
9:53 PM 48.9 °F - 27.0 °F 43% 30.43 in 10.0 mi NNE 4.6 mph - N/A   Clear
10:53 PM 46.9 °F - 26.1 °F 44% 30.44 in 10.0 mi NE 3.5 mph - N/A   Clear
11:53 PM 46.9 °F - 25.0 °F 42% 30.43 in 10.0 mi NE 6.9 mph - N/A   Clear